Temp
80 83 82 70 60 62 59 68 76 72 71 77 79 74 70 70 67 55 74 78 78 75 76 79 81 82 82 82 81 81 82 82 82 83 83 83 83 83 83 83 83 84 84 84 83 84 83 83 83
83 87 74 64 57 58 59 76 69 74 74 80 79 76 71 65 75 74 74 79 80 78 78 79 81 81 83 82 82 82 82 82 82 83 83 83 83 83 84 84 83 83 83 84 83 83 83 83 83
83 81 65 60 59 58 63 73 75 77 79 80 76 80 74 68 75 76 79 81 82 76 79 81 82 82 83 83 82 82 82 82 83 83 83 83 83 84 84 84 84 84 84 84 84 84 84 84 83
81 67 68 60 62 72 74 74 77 81 81 81 80 72 78 83 80 80 82 82 78 75 80 82 83 83 83 83 83 83 83 83 83 83 83 83 83 84 84 84 84 84 84 84 84 84 83 83 83
70 67 57 58 71 75 77 79 79 74 79 77 78 71 72 81 84 83 81 82 77 79 78 81 82 83 83 83 83 83 83 83 83 83 84 84 84 84 84 85 85 85 85 84 84 84 84 83 83
64 64 56 58 71 75 78 80 79 79 78 77 76 73 72 81 81 81 82 78 80 80 80 81 83 83 83 83 83 83 83 83 83 84 84 84 84 84 84 84 84 85 85 85 84 84 84 83 83
62 59 57 62 71 71 78 81 76 77 78 77 82 69 76 80 83 83 80 79 79 81 80 79 80 81 83 83 83 83 83 83 83 84 84 84 84 84 84 84 84 85 85 84 84 83 83 83 83
65 62 61 63 65 71 83 84 84 80 78 87 85 70 68 78 83 79 74 75 75 80 80 77 78 78 77 78 83 83 83 83 84 84 84 84 84 84 84 83 84 85 85 84 84 84 83 83 83
72 58 56 63 66 70 84 81 86 89 82 82 84 81 82 85 83 76 74 72 74 77 72 76 77 75 75 77 81 83 83 84 83 83 84 82 76 79 81 82 84 85 85 85 84 84 84 84 84
63 56 60 64 67 68 78 81 84 82 80 79 83 87 87 85 82 78 77 76 74 72 70 72 72 76 77 83 77 76 79 75 75 74 74 74 76 76 81 82 84 85 85 85 85 84 84 84 80
63 61 68 68 70 72 74 83 89 80 74 77 77 83 84 83 82 81 80 77 74 71 72 70 71 71 77 78 73 73 75 76 76 72 71 73 76 76 76 75 78 76 82 79 82 81 81 81 79
64 73 72 68 71 75 76 82 77 81 80 85 86 86 84 82 79 80 78 74 71 72 72 71 71 71 72 72 72 71 75 76 76 73 76 74 71 73 74 75 75 74 74 75 77 77 81 80 82
65 68 79 74 72 68 74 79 76 79 84 88 88 86 82 82 81 84 81 80 76 72 71 72 72 72 71 72 72 72 72 76 77 75 73 71 72 72 73 77 76 77 78 76 78 78 81 81 83
72 69 78 73 72 73 72 72 79 83 83 86 85 82 81 82 81 82 84 80 79 76 74 77 76 74 71 70 71 74 75 79 77 75 74 79 73 76 78 78 77 76 77 81 82 79 80 81 83
74 68 75 74 69 70 73 69 71 83 86 84 83 81 82 83 82 83 84 81 82 80 81 80 78 73 73 71 74 73 75 81 80 77 76 77 79 78 75 70 70 71 73 75 77 81 81 80 84
63 70 60 71 72 69 73 58 68 78 83 80 83 83 81 79 84 83 84 83 82 82 79 80 87 78 79 78 76 74 80 77 74 78 79 83 82 75 74 69 68 69 70 72 72 75 79 79 80
63 58 62 67 74 71 69 61 69 74 78 78 82 80 78 81 82 84 85 85 85 82 79 82 82 79 78 78 78 75 77 79 74 75 80 81 81 75 71 70 68 67 68 70 71 74 78 78 79
57 60 62 59 68 71 67 64 65 69 72 71 81 78 77 77 81 86 85 86 84 82 80 83 80 78 79 74 76 75 72 74 79 77 76 78 75 76 72 69 69 68 68 70 71 71 75 76 75
71 64 58 60 65 65 63 64 63 68 71 70 72 79 79 77 81 83 85 86 85 81 79 81 78 79 77 78 74 71 71 73 79 76 80 79 76 75 72 69 68 68 69 71 70 70 71 69 72
77 63 59 62 67 68 62 63 63 67 69 70 69 73 78 78 80 83 82 84 83 80 77 80 79 77 78 74 74 74 74 76 78 79 79 79 78 73 71 69 67 70 71 70 70 71 69 68 69
74 66 62 62 65 71 63 58 58 66 67 69 71 75 78 79 81 80 83 82 82 79 78 77 78 78 75 74 74 74 76 76 75 76 78 79 82 76 73 71 69 70 67 66 67 72 70 66 66
66 77 75 70 62 52 64 48 58 62 63 66 69 71 75 80 83 82 82 82 81 80 80 78 78 79 78 76 74 73 73 72 72 74 77 80 83 79 73 72 71 71 70 69 69 73 69 68 65
71 79 75 72 62 57 58 50 53 60 60 63 66 69 74 75 86 82 83 84 83 83 80 79 77 76 76 75 75 74 71 71 71 71 77 78 80 83 83 75 72 71 71 73 76 76 75 73 65
81 75 72 68 59 48 56 54 51 54 61 63 68 71 74 78 80 86 88 86 83 84 82 80 77 76 75 75 76 73 72 70 70 73 73 74 76 78 80 81 80 78 77 77 77 78 77 76 73
72 60 49 47 50 46 54 53 54 63 68 66 66 69 74 76 80 83 84 82 83 83 81 81 77 74 75 76 76 75 72 72 72 73 74 74 76 78 81 80 77 77 78 78 77 77 76 76 74
64 60 53 41 43 47 58 52 56 65 70 70 72 73 77 78 80 83 86 84 83 83 81 81 77 76 74 76 75 76 75 73 74 75 77 75 73 75 74 75 75 77 78 78 78 76 76 76 74
65 58 66 51 50 47 53 57 63 66 67 70 68 71 71 75 80 83 88 84 83 83 81 80 78 77 77 77 76 75 75 76 76 76 77 76 74 74 74 75 74 75 77 79 77 76 75 75 74
67 67 53 56 44 40 51 52 51 57 59 64 69 73 71 72 72 75 84 87 85 84 82 81 79 78 78 78 78 77 76 76 76 75 75 74 73 74 73 76 73 75 76 77 77 75 74 75 74
60 55 55 53 50 44 43 49 58 58 59 61 66 72 69 68 69 70 73 77 87 86 83 81 80 78 78 80 79 78 77 76 75 74 74 73 73 72 73 74 75 76 77 78 76 76 76 75 75
64 55 54 47 47 48 47 48 66 62 62 62 66 67 67 69 71 70 69 72 73 85 82 81 80 80 81 81 80 78 78 78 77 74 75 75 75 74 74 75 76 77 77 77 76 76 77 75 75
MSLP
1009.97 1009.91 1010.09 1011.39 1011.42 1010.29 1008.90 1008.05 1007.39 1007.51 1007.77 1008.16 1008.26 1008.64 1009.70 1010.64 1011.34 1013.85 1014.37 1014.72 1015.33 1015.88 1016.02 1015.97 1016.01 1015.73 1015.69 1015.96 1016.18 1016.67 1016.74 1016.92 1016.89 1016.86 1016.87 1016.84 1016.86 1016.92 1016.88 1016.81 1016.83 1016.87 1016.92 1017.00 1017.21 1017.25 1017.36 1017.33 1017.38
1009.47 1009.89 1010.55 1011.46 1011.45 1009.72 1008.60 1007.70 1007.52 1007.31 1008.12 1008.05 1008.58 1008.88 1009.95 1011.59 1011.90 1013.35 1014.23 1014.77 1015.16 1015.60 1015.81 1015.96 1015.90 1015.89 1015.84 1016.17 1016.39 1016.66 1016.81 1016.91 1016.95 1016.87 1017.00 1017.17 1017.26 1017.22 1017.11 1017.10 1017.13 1017.29 1017.23 1017.17 1017.28 1017.43 1017.57 1017.58 1017.55
1010.15 1010.87 1011.80 1011.55 1010.70 1009.06 1008.04 1007.41 1007.20 1007.48 1007.75 1007.89 1008.49 1009.04 1010.33 1012.02 1012.86 1013.36 1013.89 1014.47 1014.79 1015.45 1015.70 1015.86 1015.95 1015.91 1016.22 1016.22 1016.55 1016.73 1016.81 1016.92 1017.17 1017.23 1017.36 1017.51 1017.57 1017.53 1017.42 1017.34 1017.38 1017.32 1017.33 1017.40 1017.45 1017.57 1017.66 1017.74 1017.84
1010.58 1012.84 1012.62 1011.82 1009.65 1007.73 1007.08 1007.33 1007.19 1007.00 1007.45 1007.90 1008.41 1009.80 1011.14 1011.77 1012.20 1013.12 1014.09 1014.25 1015.05 1015.57 1015.51 1015.76 1015.94 1016.03 1016.19 1016.20 1016.38 1016.75 1016.98 1017.21 1017.41 1017.50 1017.48 1017.58 1017.66 1017.60 1017.58 1017.60 1017.61 1017.47 1017.50 1017.54 1017.57 1017.72 1017.86 1017.88 1018.03
1011.96 1013.24 1012.96 1011.34 1008.38 1007.44 1007.03 1007.09 1006.84 1007.27 1007.54 1008.35 1008.98 1010.72 1011.30 1011.95 1012.32 1013.37 1014.05 1014.53 1015.20 1015.65 1015.82 1016.08 1016.27 1016.24 1016.40 1016.40 1016.76 1017.05 1017.30 1017.39 1017.37 1017.56 1017.57 1017.60 1017.61 1017.69 1017.76 1017.72 1017.72 1017.64 1017.78 1017.82 1017.89 1017.94 1017.92 1018.01 1018.06
1012.85 1013.49 1012.76 1010.73 1008.41 1007.29 1006.98 1006.73 1006.83 1007.23 1007.93 1008.72 1009.15 1010.54 1011.60 1012.43 1012.78 1013.59 1013.78 1014.47 1014.91 1015.46 1015.99 1016.19 1016.38 1016.44 1016.73 1016.84 1017.19 1017.25 1017.40 1017.38 1017.57 1017.68 1017.63 1017.63 1017.78 1017.81 1017.83 1017.86 1017.91 1017.90 1018.02 1018.11 1018.17 1018.17 1018.13 1018.05 1018.02
1012.19 1012.98 1012.81 1010.90 1008.33 1007.37 1006.85 1006.72 1006.85 1007.43 1007.94 1008.42 1008.90 1010.57 1011.98 1012.39 1012.81 1013.57 1014.45 1014.46 1014.84 1015.36 1015.83 1016.39 1016.55 1016.60 1016.95 1017.24 1017.49 1017.56 1017.52 1017.58 1017.89 1017.88 1017.74 1017.79 1017.85 1017.90 1018.02 1018.07 1018.15 1018.18 1018.15 1018.20 1018.34 1018.30 1018.21 1018.16 1018.15
1013.20 1014.02 1012.63 1010.93 1008.75 1007.65 1006.55 1006.34 1006.75 1006.80 1007.82 1008.22 1008.71 1010.64 1011.80 1012.24 1013.10 1014.11 1014.69 1015.11 1015.74 1015.65 1016.08 1016.51 1016.81 1017.06 1017.43 1017.56 1017.56 1017.65 1017.82 1017.91 1017.84 1017.68 1017.69 1017.83 1017.87 1017.99 1018.14 1018.27 1018.38 1018.33 1018.33 1018.36 1018.39 1018.42 1018.44 1018.44 1018.44
1014.03 1014.40 1013.24 1011.73 1010.36 1008.66 1006.75 1006.50 1006.61 1006.99 1007.60 1008.45 1008.50 1009.67 1010.72 1011.79 1012.96 1014.20 1014.94 1016.25 1016.23 1016.40 1016.51 1016.64 1016.98 1017.11 1017.46 1017.67 1017.56 1017.66 1017.97 1018.08 1017.92 1018.00 1017.94 1018.03 1018.29 1018.25 1018.28 1018.39 1018.41 1018.44 1018.40 1018.49 1018.55 1018.54 1018.55 1018.53 1018.49
1013.40 1014.54 1013.16 1012.22 1011.26 1009.95 1007.85 1006.80 1006.63 1007.14 1007.80 1008.70 1008.99 1009.79 1010.62 1011.52 1012.57 1013.59 1014.55 1015.38 1016.01 1016.65 1016.93 1017.01 1017.53 1017.45 1017.49 1017.55 1017.69 1017.80 1018.05 1018.06 1018.14 1018.15 1018.09 1018.36 1018.58 1018.76 1018.63 1018.75 1018.68 1018.54 1018.37 1018.49 1018.47 1018.45 1018.42 1018.47 1018.50
1012.90 1012.62 1012.42 1012.07 1010.42 1010.05 1008.68 1007.29 1006.60 1006.99 1007.92 1008.42 1009.03 1009.65 1010.70 1011.44 1012.13 1013.23 1014.04 1014.64 1015.99 1016.39 1016.10 1016.40 1017.27 1017.95 1017.53 1017.67 1017.97 1018.04 1018.08 1017.81 1018.45 1018.42 1018.63 1018.55 1018.57 1018.68 1019.11 1019.24 1019.00 1018.80 1018.58 1018.74 1018.64 1018.53 1018.25 1018.39 1018.47
1011.62 1011.50 1011.68 1011.72 1011.03 1010.21 1009.01 1007.64 1007.71 1007.39 1007.89 1008.44 1008.94 1009.64 1010.55 1011.20 1011.87 1012.54 1013.55 1015.05 1015.78 1016.07 1016.31 1016.82 1017.68 1018.64 1017.87 1017.73 1018.08 1018.54 1018.23 1018.17 1018.60 1018.63 1018.45 1018.81 1018.70 1018.78 1019.10 1019.53 1019.56 1019.26 1019.04 1018.94 1018.64 1018.55 1018.12 1018.14 1018.10
1010.77 1011.05 1010.53 1010.62 1011.11 1010.42 1010.08 1008.25 1008.00 1007.93 1008.59 1008.57 1009.16 1009.78 1010.58 1010.87 1011.84 1012.49 1012.99 1014.24 1015.06 1015.81 1016.35 1016.94 1017.65 1017.90 1017.76 1017.44 1018.11 1018.44 1018.38 1018.32 1018.01 1018.10 1018.50 1018.56 1019.09 1019.17 1019.44 1019.47 1019.37 1019.07 1018.82 1018.80 1018.61 1018.44 1017.97 1017.64 1017.32
1010.21 1010.84 1010.14 1010.74 1010.76 1010.96 1009.61 1009.38 1008.62 1008.14 1008.84 1009.01 1009.34 1010.03 1010.55 1011.14 1011.66 1012.37 1012.91 1013.93 1015.06 1015.70 1016.40 1016.58 1017.37 1017.07 1017.36 1017.05 1017.87 1018.06 1018.03 1017.88 1017.96 1018.18 1018.46 1018.56 1018.86 1019.06 1019.04 1019.13 1019.26 1019.08 1018.52 1018.24 1018.07 1018.10 1018.05 1017.89 1017.49
1008.51 1009.83 1009.89 1010.57 1011.05 1010.75 1010.37 1009.98 1009.34 1008.59 1008.54 1009.13 1009.45 1010.38 1010.87 1011.38 1011.53 1011.92 1012.82 1013.65 1014.44 1015.16 1015.50 1016.18 1016.68 1017.05 1017.39 1017.29 1017.32 1017.79 1017.36 1017.69 1017.94 1018.21 1018.62 1018.78 1018.57 1018.74 1019.36 1019.96 1019.96 1020.10 1019.09 1018.87 1018.46 1018.19 1017.88 1017.79 1017.42
1010.13 1010.32 1010.21 1010.61 1010.95 1011.41 1011.13 1011.62 1010.26 1010.19 1009.19 1009.41 1009.77 1010.53 1011.08 1011.73 1011.58 1011.86 1012.26 1013.00 1013.78 1014.81 1015.34 1015.59 1016.12 1016.91 1016.76 1017.26 1017.62 1017.47 1017.62 1017.85 1017.71 1018.14 1018.00 1017.73 1018.01 1018.98 1019.51 1019.92 1020.18 1020.15 1020.05 1019.18 1019.03 1018.92 1018.55 1018.17 1017.72
1009.70 1009.84 1010.33 1010.73 1010.81 1011.19 1011.54 1012.41 1011.20 1010.52 1010.47 1009.82 1009.75 1010.39 1010.83 1011.14 1011.43 1011.75 1012.06 1012.78 1013.67 1014.38 1015.13 1015.43 1015.99 1016.28 1016.71 1016.98 1017.16 1017.62 1017.59 1017.86 1018.04 1018.17 1018.03 1017.98 1018.75 1019.28 1019.37 1019.32 1019.87 1020.18 1020.07 1019.31 1019.71 1019.38 1019.00 1018.55 1018.14
1008.77 1009.93 1011.09 1011.55 1011.27 1011.44 1011.79 1012.31 1012.26 1011.44 1011.32 1011.32 1010.14 1010.60 1010.84 1011.19 1011.39 1011.58 1012.10 1012.73 1013.40 1014.16 1014.76 1015.24 1016.06 1016.17 1016.75 1017.00 1017.12 1017.36 1018.19 1018.18 1018.27 1018.57 1018.63 1018.40 1019.09 1019.26 1018.94 1018.94 1020.00 1019.92 1020.13 1019.90 1019.70 1020.01 1020.26 1019.53 1019.08
1007.13 1009.18 1010.67 1011.33 1011.60 1012.00 1011.65 1012.39 1012.78 1012.65 1012.15 1011.55 1010.97 1010.24 1010.82 1011.05 1010.99 1011.53 1012.04 1012.60 1013.45 1013.90 1014.55 1015.21 1016.03 1016.15 1016.77 1017.07 1017.60 1017.86 1018.52 1018.35 1018.22 1018.18 1018.23 1018.30 1018.83 1019.31 1018.99 1019.54 1020.10 1020.23 1020.35 1019.64 1020.06 1020.61 1021.67 1020.05 1019.82
1005.58 1008.10 1009.99 1011.24 1010.28 1011.12 1011.39 1012.12 1012.44 1012.21 1011.52 1011.34 1012.05 1011.51 1010.56 1011.09 1011.30 1011.55 1012.01 1012.37 1013.05 1013.62 1014.36 1014.88 1015.79 1016.12 1016.69 1017.04 1017.50 1017.66 1017.87 1017.74 1018.01 1017.76 1018.23 1018.37 1018.65 1019.70 1019.55 1019.87 1020.10 1019.80 1020.09 1020.99 1020.64 1021.05 1021.56 1021.51 1020.29
1004.73 1006.41 1008.31 1009.08 1010.23 1010.51 1011.26 1012.14 1012.42 1012.20 1011.89 1011.33 1011.31 1011.55 1011.44 1010.13 1010.41 1011.29 1011.73 1012.07 1012.93 1013.63 1014.17 1014.82 1015.27 1015.78 1016.55 1016.73 1017.07 1017.62 1017.71 1017.46 1018.14 1018.23 1018.41 1018.43 1018.34 1018.92 1019.32 1019.68 1019.59 1019.40 1020.74 1021.26 1021.37 1020.06 1021.57 1021.60 1020.89
1004.34 1005.24 1006.47 1007.90 1009.35 1010.42 1011.29 1012.47 1012.37 1012.17 1011.73 1011.09 1010.82 1010.99 1011.45 1010.25 1010.47 1010.80 1011.24 1011.87 1012.49 1013.23 1014.06 1014.50 1014.90 1015.43 1016.08 1016.64 1017.03 1017.52 1017.98 1018.21 1018.38 1018.34 1018.36 1018.34 1018.27 1019.16 1019.56 1019.29 1019.24 1019.41 1019.72 1020.19 1020.42 1020.90 1021.37 1020.79 1020.76
1003.85 1004.35 1005.45 1006.98 1008.69 1009.81 1011.20 1012.03 1011.94 1012.06 1011.91 1011.56 1011.03 1010.50 1011.28 1011.04 1009.79 1010.08 1010.65 1011.18 1011.87 1012.74 1013.62 1014.31 1014.68 1015.14 1015.81 1016.45 1016.84 1017.46 1018.16 1018.45 1018.54 1018.39 1018.36 1018.32 1018.30 1018.30 1018.78 1019.36 1019.27 1019.74 1020.05 1019.89 1020.17 1019.81 1020.01 1019.99 1020.36
1003.50 1004.44 1005.50 1006.58 1008.30 1010.12 1010.45 1011.25 1011.91 1011.88 1011.04 1011.17 1011.01 1010.05 1010.33 1010.67 1010.43 1009.55 1010.07 1010.90 1011.76 1012.33 1013.25 1014.06 1014.66 1015.06 1015.52 1016.19 1016.75 1017.39 1017.77 1018.31 1018.46 1018.54 1018.46 1018.58 1018.64 1018.62 1018.48 1018.53 1018.61 1018.80 1019.15 1019.44 1019.49 1019.52 1019.73 1019.87 1019.89
1003.92 1005.26 1006.75 1008.04 1009.21 1011.18 1011.28 1011.89 1010.84 1010.48 1010.56 1010.68 1010.23 1009.89 1009.92 1010.01 1010.08 1009.41 1009.63 1010.30 1011.32 1012.04 1012.65 1013.52 1014.39 1014.81 1015.09 1015.69 1016.45 1016.96 1017.52 1017.85 1018.20 1018.29 1018.24 1018.46 1018.58 1018.71 1018.50 1018.67 1019.18 1019.18 1019.09 1019.02 1019.28 1019.42 1019.55 1019.54 1019.62
1004.50 1005.55 1007.34 1009.49 1011.01 1011.75 1011.72 1011.67 1010.78 1010.70 1010.45 1010.46 1010.69 1010.24 1009.62 1008.91 1009.21 1009.13 1009.29 1009.82 1010.53 1011.26 1011.98 1012.68 1013.71 1014.32 1014.80 1015.23 1015.99 1016.55 1017.01 1017.46 1017.82 1018.11 1018.07 1018.15 1018.43 1018.65 1018.61 1018.84 1019.17 1019.30 1019.22 1019.29 1019.23 1019.45 1019.29 1019.50 1019.60
1004.81 1006.05 1007.48 1009.79 1011.19 1012.15 1011.87 1011.78 1011.08 1010.98 1010.84 1010.75 1010.07 1010.14 1009.94 1009.76 1008.83 1008.94 1008.62 1009.58 1010.07 1010.72 1011.47 1012.01 1012.92 1013.78 1014.22 1014.80 1015.50 1016.22 1016.66 1017.01 1017.28 1017.43 1017.41 1017.85 1018.31 1018.38 1018.62 1018.88 1019.18 1019.21 1019.30 1019.03 1019.02 1019.57 1019.46 1019.59 1019.52
1005.82 1007.31 1008.32 1010.35 1012.01 1013.01 1012.65 1012.39 1012.49 1011.56 1011.08 1010.76 1009.96 1009.46 1009.96 1010.52 1010.66 1009.67 1009.29 1008.95 1009.45 1010.01 1010.97 1011.78 1012.32 1012.86 1013.40 1014.01 1014.89 1015.64 1016.12 1016.56 1016.91 1017.25 1017.48 1017.82 1018.07 1017.84 1018.08 1018.30 1018.90 1018.87 1018.75 1018.91 1019.06 1019.46 1019.59 1019.46 1019.34
1006.98 1008.21 1009.57 1010.99 1012.29 1013.19 1013.60 1013.33 1012.86 1012.75 1012.09 1011.71 1011.22 1010.12 1010.03 1010.06 1010.41 1011.12 1009.90 1010.12 1009.06 1009.46 1010.32 1011.19 1011.91 1012.49 1013.12 1013.33 1014.15 1014.97 1015.56 1016.02 1016.51 1017.12 1017.43 1017.95 1018.07 1017.72 1017.79 1018.31 1018.58 1018.66 1018.66 1018.78 1019.02 1019.26 1019.31 1019.37 1019.20
1008.14 1009.27 1009.97 1011.33 1012.32 1012.87 1013.32 1012.43 1012.40 1012.38 1012.46 1012.87 1012.16 1010.84 1010.53 1010.70 1012.04 1011.32 1010.76 1010.57 1010.25 1009.48 1010.04 1010.61 1011.45 1012.20 1012.71 1013.02 1013.70 1014.39 1014.90 1015.41 1015.97 1016.52 1016.84 1017.14 1017.44 1017.47 1017.49 1017.98 1018.24 1018.50 1018.51 1018.62 1018.77 1018.85 1018.89 1018.79 1018.68
Wind_Speed
2 6 3 3 5 2 4 2 11 16 6 9 5 8 9 6 4 7 7 12 12 9 8 8 14 13 17 18 13 12 13 12 12 12 13 13 14 14 14 14 14 14 14 15 13 12 11 11 12
5 6 4 3 3 3 2 11 12 9 12 11 19 21 19 15 13 17 12 16 15 11 7 8 13 15 16 16 17 12 13 13 12 13 13 14 13 14 14 14 13 14 14 15 14 13 11 10 10
2 14 5 4 1 4 6 9 15 16 20 19 11 14 9 11 17 13 13 16 12 8 8 10 15 15 17 17 16 14 13 12 13 13 13 14 14 13 13 13 12 13 14 13 13 12 10 8 8
3 6 0 4 8 13 10 15 14 16 22 23 20 14 11 15 10 11 17 12 10 8 10 11 16 16 15 16 15 13 12 12 12 12 14 14 13 14 12 13 13 13 13 12 11 11 8 7 5
6 2 1 6 5 15 16 15 15 3 20 23 26 23 17 16 19 20 14 11 10 10 9 10 13 15 14 15 13 14 13 13 13 11 12 14 13 13 11 12 12 14 12 11 10 9 8 4 1
6 2 4 2 10 8 10 13 9 12 23 21 25 19 9 21 18 13 16 12 10 13 10 9 14 15 13 14 13 13 12 13 12 10 12 13 12 12 12 11 12 12 12 10 10 9 7 5 3
7 4 3 9 14 9 12 13 9 10 17 17 22 17 15 19 18 14 9 9 8 14 11 8 6 12 14 13 13 12 12 12 12 11 12 13 12 11 10 10 11 10 9 9 7 8 7 6 5
6 3 4 8 5 4 10 11 17 16 15 22 20 15 14 12 21 19 9 2 7 13 12 9 7 6 5 6 13 12 12 12 11 11 12 12 12 12 11 7 8 9 8 8 8 6 6 5 6
7 4 2 6 9 8 14 9 15 19 17 6 3 17 19 17 25 16 11 7 9 10 6 6 6 6 6 6 8 11 13 11 11 8 9 7 2 6 8 7 8 7 7 7 6 7 6 6 7
8 5 5 3 8 10 7 8 14 16 14 11 18 17 22 16 20 17 15 13 16 13 6 4 3 6 7 7 5 6 6 5 5 4 4 2 1 1 5 7 9 9 10 9 8 9 9 8 3
10 6 7 4 12 9 9 7 10 14 14 16 18 15 20 15 11 19 16 18 13 13 8 5 5 6 6 6 3 2 3 4 3 4 2 4 2 4 2 2 3 3 8 3 5 5 5 5 4
11 6 11 11 10 8 12 7 5 16 17 20 17 13 13 15 10 8 18 22 16 12 11 12 8 4 3 4 2 3 2 3 4 3 4 3 2 3 2 2 4 4 3 5 5 3 6 7 8
10 6 13 12 8 11 17 10 5 13 13 17 18 14 9 10 8 11 17 20 18 14 9 11 7 8 4 5 2 2 5 4 4 5 6 3 2 2 1 6 4 5 4 4 4 5 5 4 4
3 4 8 13 11 12 0 8 6 13 17 17 18 11 8 6 8 10 16 17 16 14 13 13 14 8 7 6 4 5 4 5 4 3 5 3 3 4 2 1 3 3 3 3 5 5 4 4 4
5 2 6 7 6 3 3 5 4 9 15 16 16 13 7 6 9 11 12 17 19 14 16 14 12 11 10 6 4 5 2 2 5 4 5 6 2 4 9 5 5 5 6 4 6 7 1 2 2
8 7 4 4 2 3 3 3 18 10 8 12 16 8 13 9 9 7 11 18 19 14 11 8 10 12 8 9 6 3 3 3 3 2 3 3 3 9 7 4 4 5 1 6 6 6 6 3 3
1 5 4 1 4 5 1 4 16 12 10 2 16 17 13 8 3 7 9 17 17 14 12 10 8 7 6 6 5 5 4 5 2 3 1 2 8 8 7 5 5 5 5 7 7 8 7 3 3
5 5 6 5 5 4 5 4 5 11 9 7 15 14 12 11 8 6 11 12 15 13 12 12 7 8 7 5 4 3 5 2 3 2 2 2 9 4 5 5 3 4 3 6 3 7 9 7 8
12 15 12 6 13 7 5 8 16 11 9 3 8 14 13 13 10 7 13 16 13 9 10 10 7 6 5 3 3 2 3 2 5 3 4 1 8 11 7 3 3 4 6 5 7 10 8 10 7
9 21 9 4 12 10 5 2 4 4 4 1 3 10 16 13 14 12 13 14 13 11 9 15 9 8 4 4 3 2 2 1 3 5 6 3 7 12 10 7 4 2 1 3 5 5 2 3 4
7 16 12 10 14 2 6 2 4 4 4 4 6 7 9 19 19 11 19 17 15 12 14 10 9 8 7 6 3 3 2 2 4 1 2 2 6 13 10 5 2 5 2 4 5 5 4 4 2
5 11 13 12 10 4 7 4 6 6 9 8 10 7 6 14 18 15 13 18 18 14 14 13 10 9 7 8 4 4 2 2 1 1 2 4 3 11 9 6 5 4 1 1 1 6 6 4 2
7 7 8 12 9 6 7 2 3 5 9 9 10 15 5 13 16 19 17 17 19 17 15 13 11 8 8 8 6 5 5 4 2 1 3 3 4 3 11 11 8 5 4 5 3 2 1 3 2
8 8 7 4 5 2 6 8 5 7 13 16 14 18 11 16 13 13 18 15 18 16 15 13 13 11 8 8 8 8 7 5 4 0 3 3 2 1 1 2 5 3 3 1 2 2 3 1 4
3 2 5 6 3 1 8 7 3 7 8 16 22 23 21 18 16 13 15 16 19 18 18 14 13 9 8 9 8 8 8 6 6 4 3 3 3 1 4 4 3 1 2 2 3 2 2 2 1
5 5 4 1 2 3 3 1 6 7 7 7 8 15 13 16 11 14 13 15 20 18 19 18 14 11 9 9 8 7 7 5 5 6 4 4 4 3 4 5 5 5 4 4 2 3 3 2 3
6 6 8 7 2 1 1 3 4 7 8 13 15 12 14 12 7 15 17 14 19 18 19 18 16 13 12 11 8 7 7 6 5 3 3 4 6 5 4 1 4 4 4 5 3 2 3 3 4
9 3 8 5 2 4 2 2 5 11 12 10 16 13 17 13 8 4 13 17 19 17 17 17 17 17 15 12 10 8 7 7 5 4 3 6 5 5 6 3 4 4 4 6 2 2 1 2 1
7 4 5 4 4 3 2 3 4 6 10 12 16 5 12 7 16 5 10 9 18 17 19 18 16 16 14 13 11 11 9 7 6 6 6 7 6 6 4 5 6 5 3 4 4 3 4 4 4
4 2 4 5 3 3 3 7 7 4 10 16 20 7 6 12 15 2 8 9 7 15 17 19 17 16 15 13 12 11 12 11 9 8 8 7 7 7 7 7 7 5 3 3 4 6 5 4 4
Wind_Direction
171 194 154 55 40 35 125 14 134 113 91 33 67 111 111 127 73 127 168 127 127 151 181 148 144 142 130 126 131 127 135 131 123 118 116 110 109 108 107 106 104 107 107 106 108 108 105 100 99
286 200 46 97 73 75 25 89 103 96 111 118 85 89 79 84 79 118 116 142 153 161 163 150 139 131 130 129 122 137 135 128 125 117 114 114 116 112 109 109 111 112 117 115 111 106 106 104 99
330 54 20 17 316 148 125 102 108 127 146 113 106 87 75 103 121 136 139 155 146 140 154 148 137 133 131 129 133 135 130 125 123 117 116 116 111 113 110 109 110 115 110 112 107 108 110 111 109
102 33 176 225 229 108 123 91 65 92 112 112 115 76 99 123 113 133 153 141 125 165 134 135 133 131 128 128 127 127 133 124 122 128 125 121 125 119 113 111 116 124 119 112 117 119 118 111 122
30 26 173 300 39 101 97 106 105 93 100 99 103 115 114 118 129 134 132 124 122 125 121 133 127 125 130 127 132 134 135 130 127 132 128 131 129 122 120 112 109 117 116 118 121 121 116 122 177
89 218 357 293 114 95 107 123 106 108 108 118 112 126 119 129 133 139 137 152 139 132 126 130 131 124 130 128 134 135 137 132 133 140 133 130 128 125 123 118 115 121 122 125 125 127 139 162 220
97 99 229 293 118 112 126 137 130 136 113 119 125 116 135 145 138 135 106 126 120 130 124 125 123 134 135 134 139 142 144 145 144 142 136 140 140 137 134 129 126 124 130 136 140 152 166 180 217
51 7 354 306 57 88 85 110 156 130 130 125 124 125 154 151 133 118 130 138 76 124 138 135 140 123 129 145 147 150 155 152 151 155 150 149 147 147 144 143 143 145 150 165 172 181 199 207 229
355 339 305 321 35 306 109 109 150 123 105 87 96 134 148 148 128 141 149 120 124 78 68 107 142 150 148 139 162 159 154 153 161 157 162 162 166 152 155 174 170 173 184 192 192 206 216 234 253
122 248 248 346 296 288 310 130 133 129 127 113 125 138 138 140 138 148 153 145 124 102 70 50 354 170 154 166 163 172 156 182 169 146 159 187 255 304 172 175 190 197 212 211 218 231 230 234 249
170 207 175 181 268 273 305 85 130 138 126 147 152 140 130 144 143 157 158 142 116 143 143 180 244 264 178 138 193 178 173 202 149 163 122 114 143 96 76 290 227 234 231 247 231 246 241 225 225
38 259 165 172 213 300 346 83 57 109 139 144 137 136 133 150 159 170 122 123 141 149 159 179 212 278 55 108 61 308 195 219 133 140 127 82 87 4 217 236 266 257 271 249 244 233 247 236 234
142 275 177 154 93 348 308 48 44 125 148 141 130 145 143 153 152 144 137 134 152 156 171 179 177 203 105 82 65 305 260 192 161 142 123 106 119 268 268 228 232 230 239 219 249 242 271 270 307
229 295 109 80 136 183 344 330 348 127 157 158 141 149 127 145 144 116 139 143 145 146 168 182 184 133 140 175 194 238 229 136 159 109 148 168 264 189 197 329 304 301 243 218 232 222 242 283 286
209 240 127 110 113 141 157 342 338 133 139 146 156 116 110 109 153 157 162 138 145 154 155 167 145 154 169 195 192 223 60 247 134 161 186 203 143 34 51 57 22 347 23 15 6 349 353 237 248
30 249 78 139 154 218 250 347 293 346 172 163 151 132 154 188 155 148 141 139 137 149 151 155 138 159 168 145 182 140 218 36 109 90 152 107 56 75 67 55 5 354 330 19 8 341 330 260 188
326 119 106 346 145 138 240 174 269 334 342 227 145 152 146 160 98 152 141 135 146 151 149 147 142 162 165 127 159 144 118 114 110 54 285 71 63 104 97 32 359 6 333 21 7 338 300 225 241
181 131 61 31 9 207 153 138 131 248 325 318 154 149 152 147 143 165 145 120 141 145 145 143 152 164 138 115 87 89 92 35 123 75 63 94 99 81 78 87 328 6 318 0 358 343 341 45 23
159 113 123 135 263 283 227 161 192 219 252 315 331 156 152 164 179 175 137 138 138 134 128 110 148 169 134 139 105 65 92 144 130 162 150 230 92 103 102 279 212 91 81 303 3 344 305 27 4
183 139 130 183 228 231 126 204 201 247 236 255 2 324 152 164 172 186 156 147 154 151 144 153 167 152 122 104 124 130 113 184 173 147 170 198 136 145 153 209 98 101 131 64 18 323 28 11 1
266 157 168 162 206 65 120 215 211 216 260 276 276 255 277 165 167 175 164 159 156 156 153 155 156 154 131 121 120 92 100 35 102 130 151 172 144 140 163 174 151 149 125 199 119 51 313 231 255
314 131 160 144 159 195 182 232 216 183 236 242 260 250 338 177 180 166 177 160 162 163 159 158 153 160 149 147 140 129 171 92 4 34 161 178 143 137 183 169 195 201 283 294 170 195 213 169 261
251 175 188 165 187 128 198 160 207 121 204 226 245 258 219 273 181 175 181 168 166 160 163 164 164 168 156 159 169 158 144 136 176 333 141 153 164 171 155 180 190 196 205 226 230 10 79 111 127
360 347 331 242 141 228 212 166 207 183 205 191 215 250 240 241 246 186 178 168 168 165 161 162 172 176 158 155 174 142 156 160 130 257 149 199 177 169 319 169 147 135 113 75 44 17 31 10 141
221 305 307 329 358 203 50 345 273 181 181 189 200 220 229 232 231 195 179 154 167 172 164 167 168 169 168 158 168 159 156 162 148 214 207 165 99 133 225 139 144 175 208 229 230 228 264 274 236
302 207 137 18 282 321 353 328 289 343 177 189 228 244 243 248 209 191 196 166 171 172 167 169 170 172 168 165 174 168 161 168 179 203 177 133 138 136 97 89 66 285 211 221 247 249 268 160 178
272 353 139 110 130 282 203 353 303 359 1 345 251 233 253 286 203 188 164 177 177 175 172 168 167 173 174 175 167 167 172 179 199 157 156 128 145 155 138 220 244 251 277 238 213 257 268 187 238
94 333 24 20 62 307 240 158 266 324 319 325 299 187 198 262 301 223 211 179 173 171 170 169 170 172 182 172 168 171 176 177 191 133 144 125 138 180 170 155 232 249 223 228 176 231 218 21 305
12 39 70 161 100 129 351 343 244 298 308 321 301 177 167 247 281 300 36 319 178 168 168 172 172 172 182 178 171 169 177 185 187 169 191 190 175 192 182 202 221 219 211 235 190 227 261 231 236
100 129 127 117 184 119 141 257 167 142 307 334 280 111 164 186 232 175 51 12 353 178 167 172 174 176 182 179 176 171 175 181 186 179 191 203 199 192 180 206 186 195 213 215 225 216 228 238 252